Showing default

YAOGAN 29, 41038

Orbit data source: Space-Track

YAOGAN 29, 41038 is a payload satellite owned by PLA GAD (CN) in SSO that was launched on Thu, 26 Nov 2015 UTC via a CHANG ZHENG 4C launch vehicle from the Taiyaun Space Center, China (TSC). Payloads include a variety of satellites, spacecraft, and rockets equipped with specific instruments for various scientific and technological missions. These include communications satellites like Starlink; space stations such as the ISS; scientific satellites like the Hubble; Earth observation satellites from companies like Planet Labs, Umbra, and HawkEye 360; GPS; miniature CubeSats for education and research; and military/defense satellites.

Loading next visibility...
YAOGAN 29 details
Identifier
41038, 2015-069A
Orbit
SSO
Last TLE update7 hours ago
Origin
Flag of CNPLA GAD (CN / PRC)
ManufacturerSAST
MissionOperational Defense Radar Imaging
Bus & MotorJB-9, Unknown motor
Mass1,040 kg wet, 1,040 kg dry
Launch date (UTC)
2015-11-26 (9 years ago)
Launch vehicle
CHANG ZHENG 4C
Launch site
Taiyaun Space Center, China (TSC)
Object type
Payload
Rocket body
Debris
Shape & HBRBox + 2 Pan, 5 m
Radar Cross Section4.795 m², Large (>1 m²)

Expand to show TLE details & history

TLE from 7 hours ago
0 YAOGAN 29
1 41038U 15069A   24361.26768981  .00001292  00000-0  16856-3 0  9993
2 41038  98.0469  16.7882 0001531  26.5987 333.5304 14.82270995490914
Epoch: 2024-12-26T06:25Z
Definitive object data (Epoch: 2024-12-26T06:25:28.399Z)
Latitude-0.00003°
Longitude-174.82966°
Altitude624.225 km
Speed7.547 km/s
True Right ascension01h 07m 09s
True Declination0° 00' 00"
Sunlit
Object was in daylight at TLE epoch
Visualization TLE readout
Latitude-43.16377°
Longitude-2.09402°
Altitude639.812 km
Speed7.536 km/s
Apparent Right ascension07h 57m 56s
Apparent Declination-84° 24' 39"
Sunlit
Object is in daylight
Visualization observer readout
Local Sidereal Time13:16:21
Azimuth187.05° SSW
Elevation-38.692°
Doppler factor1
Orbital elements
Apogee altitude620.281 km
Perigee altitude618.138 km
Semi-major axis6,997.346 km
Eccentricity0.0001531
Inclination98.0469°
RAAN16.7882°
Arg. of periapsis26.5987°
True anomaly333.52258°
Mean anomaly333.5304°
Eccentric anomaly333.52649°
Mean motion3.70803 °/min
BSTAR0.00016856
Orbital period97.09 mins
Loading maneuver chart data...
Loading historical data...
Loading historical data...
Loading historical data...
Loading historical data...
Loading historical data...
Loading historical data...
Loading historical data...

YAOGAN 29 Visibility forecast

Observer location: undefined°, undefined

Span
Click to sort rows by Start time (UTC) header in descending order
Start Az.
Max El. time (UTC)
Max El. Az.
Max El.
End time (UTC)
End Az.
6 mins2024-12-26 15:05:35.968Z337.541° N2024-12-26 15:08:35.968Z285.996° WNW20.996°2024-12-26 15:11:35.968Z241.343° WSW
5 mins2024-12-27 00:24:35.968Z103.384° ESE2024-12-27 00:26:35.968Z64.889° ENE21.658°2024-12-27 00:29:35.968Z17.695° NNE
5 mins2024-12-27 02:00:35.968Z222.752° SW2024-12-27 02:02:35.968Z267.46° W25.82°2024-12-27 02:05:35.968Z319.538° NNW
6 mins2024-12-27 13:47:35.968Z32.807° NE2024-12-27 13:50:35.968Z113.258° SE36.181°2024-12-27 13:53:35.968Z170.477° S
|